カタログに戻る

HULIANWANG DIGUI-102

運用中通信LEO
NORAD 66418·PAYLOAD·🇨🇳 China

打ち上げ Nov 10, 2025 から Wenchang Space Launch Site

Loading…

次のパス (今後24時間)

TLE

最新Source: Space-Track

元期: Sep 14, 2026, 15:39 UTC

1 66418U 25258G   26257.65245990 -.00000082  00000-0  90744-4 0  9998
2 66418  50.0033 334.5411 0000095 107.0870 253.0013 13.29326258 41635

AllMySatでHULIANWANG DIGUI-102をリアルタイム追跡

Download on the App Store